Weather reports worldwide

Advertisment
Socoa, France (7600): temperature & dewpoint: 12.10.2018 19:00:00 - 18.10.2018 19:00:00 (CEST)Socoa, France (7600): wind speed & gusts: 12.10.2018 19:00:00 - 18.10.2018 19:00:00 (CEST)Socoa, France (7600): wind direction: 12.10.2018 19:00:00 - 18.10.2018 19:00:00 (CEST)Socoa, France (7600): reduced air pressure: 12.10.2018 19:00:00 - 18.10.2018 19:00:00 (CEST)Socoa, France (7600): visibility: 12.10.2018 19:00:00 - 18.10.2018 19:00:00 (CEST)Socoa, France (7600): precipitation: 12.10.2018 19:00:00 - 18.10.2018 19:00:00 (CEST)
Date & Time tt [°C] td [°C] ff [km/h] ff [kn] fx [km/h] fx [kn] dd ppp [hPa] vv [km] rr [mm]
18.10.2018 19:00:00 - - - - - - - - - -
18.10.2018 18:00:00 17,7 15,7 13 7 16 9 W 1015,5 - 0,0
18.10.2018 17:00:00 18,0 15,6 15 8 22 12 W 1015,5 8 0,0
18.10.2018 16:00:00 18,9 15,6 16 9 18 10 W 1015,6 - 0,0
18.10.2018 15:00:00 19,9 15,5 9 5 10 6 W 1015,7 - 0,0
18.10.2018 14:00:00 18,9 15,2 5 3 8 5 NW 1016,1 4,0 0,0
18.10.2018 13:00:00 17,4 14,7 4 2 8 4 N 1016,5 - 0,0
18.10.2018 12:00:00 16,3 14,8 3 2 8 4 N 1016,8 - 0,0
18.10.2018 11:00:00 15,4 14,1 2 1 13 7 N 1016,6 4,0 0,0
18.10.2018 10:00:00 14,8 13,7 3 2 5 3 S 1016,3 - 0,0
18.10.2018 09:00:00 14,2 13,2 4 2 7 4 NNW 1015,8 - 0,0
18.10.2018 08:00:00 13,7 12,6 6 3 8 4 S 1015,5 18 0,0
18.10.2018 07:00:00 13,6 12,7 4 2 10 6 S 1015,4 - 0,0
18.10.2018 06:00:00 13,3 12,4 9 5 16 9 S 1015,2 - 0,0
18.10.2018 05:00:00 12,9 12,0 5 3 10 6 SSE 1015,2 - 0,0
18.10.2018 04:00:00 12,6 11,5 7 4 10 5 S 1015,3 - 0,2
18.10.2018 03:00:00 13,1 12,2 5 3 8 5 E 1015,7 - 0,0
18.10.2018 02:00:00 13,1 12,0 4 2 10 5 SSW 1015,7 18 0,0
18.10.2018 01:00:00 12,9 11,6 8 4 12 6 SW 1015,8 - 0,0
18.10.2018 00:00:00 13,4 12,1 4 2 8 4 SSW 1015,6 - 0,0
17.10.2018 23:00:00 13,5 12,1 5 3 6 4 W 1015,6 - 0,0
17.10.2018 22:00:00 14,8 13,5 3 2 10 6 SE 1015,1 - 0,0
17.10.2018 21:00:00 15,5 13,7 4 2 10 5 E 1015,1 - 0,0
17.10.2018 20:00:00 16,6 14,4 5 3 27 15 SSE 1014,7 - 0,0
17.10.2018 19:00:00 17,8 15,1 17 9 25 13 NE 1014,3 - 0,0
17.10.2018 18:00:00 19,2 15,1 9 5 14 7 NNE 1014,4 - 0,0
17.10.2018 17:00:00 19,1 14,4 8 5 18 10 N 1015,2 - 0,0
17.10.2018 16:00:00 18,1 14,4 13 7 19 10 NNE 1015,4 - 0,0
17.10.2018 15:00:00 18,5 14,0 15 8 19 11 N 1016,0 - 0,0
17.10.2018 14:00:00 18,2 14,1 13 7 17 9 N 1016,7 - 0,0
17.10.2018 13:00:00 19,9 15,1 7 4 9 5 N 1017,5 - 0,0
17.10.2018 12:00:00 18,2 14,5 5 3 9 5 N 1018,2 - 0,0
17.10.2018 11:00:00 16,5 14,1 4 2 6 3 W 1018,7 12 0,0
17.10.2018 10:00:00 15,5 13,5 5 3 8 5 S 1018,7 - 0,0
17.10.2018 09:00:00 15,2 13,6 5 3 10 5 SSW 1018,8 - 0,0
17.10.2018 08:00:00 15,0 13,4 7 4 10 6 SSW 1018,8 18 0,0
17.10.2018 07:00:00 14,9 13,4 7 4 9 5 SW 1018,9 - 0,0
17.10.2018 06:00:00 14,9 13,4 8 4 13 7 SSW 1018,9 - 0,0
17.10.2018 05:00:00 14,9 13,6 10 5 16 8 SW 1019,0 16 0,0
17.10.2018 04:00:00 14,8 13,5 6 3 8 5 SW 1019,3 - 0,0
17.10.2018 03:00:00 14,5 13,4 7 4 10 6 SSW 1019,8 - 0,0
17.10.2018 02:00:00 14,4 13,3 8 4 10 5 S 1020,1 16 0,0
17.10.2018 01:00:00 14,2 12,9 4 2 9 5 SSW 1020,3 - 0,0
17.10.2018 00:00:00 14,3 12,8 5 3 8 4 S 1020,5 - 0,0
16.10.2018 23:00:00 14,7 13,1 6 4 9 5 SSW 1020,8 16 0,0
16.10.2018 22:00:00 15,3 13,7 9 5 12 7 S 1020,6 - 0,0
16.10.2018 21:00:00 15,0 13,4 5 3 9 5 SSW 1020,4 - 0,0
16.10.2018 20:00:00 15,3 13,1 5 3 6 4 WSW 1019,7 - 0,0
16.10.2018 19:00:00 17,3 13,6 4 2 10 6 WSW 1019,1 - 0,0
16.10.2018 18:00:00 17,5 14,2 8 4 14 7 N 1019,0 - 0,0
16.10.2018 17:00:00 19,1 15,0 7 4 15 8 NW 1018,8 - 0,0
16.10.2018 16:00:00 18,0 15,1 10 6 14 8 NW 1018,7 - 0,0
16.10.2018 15:00:00 20,2 15,0 9 5 18 10 NNW 1018,4 - 0,0
16.10.2018 14:00:00 19,1 14,4 13 7 19 11 NNW 1018,3 18 0,0
16.10.2018 13:00:00 19,8 14,4 9 5 13 7 WNW 1018,1 - 0,0
16.10.2018 12:00:00 19,2 14,5 4 2 8 4 N 1018,0 - 0,0
16.10.2018 11:00:00 16,3 13,0 2 1 6 4 E 1017,6 12 0,0
16.10.2018 10:00:00 15,4 13,1 4 2 12 7 S 1017,1 - 0,0
16.10.2018 09:00:00 13,2 11,9 11 6 15 8 S 1016,3 - 0,0
16.10.2018 08:00:00 13,3 12,0 3 2 7 4 S 1015,8 12 0,0
16.10.2018 07:00:00 12,8 11,7 6 4 9 5 S 1015,2 - 0,0
16.10.2018 06:00:00 12,0 10,9 5 3 13 7 S 1014,8 - 0,0
16.10.2018 05:00:00 11,5 10,4 11 6 13 7 SSW 1014,1 - 0,0
16.10.2018 04:00:00 11,8 10,5 9 5 12 6 SSW 1013,6 - 0,0
16.10.2018 03:00:00 12,1 10,8 4 2 7 4 SSW 1013,3 - 0,0
16.10.2018 02:00:00 12,5 11,2 3 2 11 6 SW 1013,0 - 0,0
16.10.2018 01:00:00 13,0 11,6 3 2 8 4 SSE 1013,0 - 0,0
16.10.2018 00:00:00 13,6 11,8 6 3 10 5 S 1012,5 - 0,0
15.10.2018 23:00:00 14,4 12,3 4 2 12 7 NE 1012,0 18 0,0
15.10.2018 22:00:00 15,6 12,7 11 6 23 12 ESE 1011,2 - 0,0
15.10.2018 21:00:00 16,5 13,0 17 9 29 15 E 1010,7 - 0,0
15.10.2018 20:00:00 17,2 12,9 18 10 30 16 ENE 1010,1 15 0,0
15.10.2018 19:00:00 18,5 12,9 21 12 31 17 ENE 1009,1 - 0,0
15.10.2018 18:00:00 19,1 14,6 21 11 32 17 NNE 1008,6 - 0,0
15.10.2018 17:00:00 19,6 14,4 22 12 33 18 NNE 1008,2 20 0,0
15.10.2018 16:00:00 19,7 14,5 18 10 27 14 NNE 1007,9 - 0,0
15.10.2018 15:00:00 20,8 14,7 16 9 25 13 NNE 1008,2 - 0,0
15.10.2018 14:00:00 19,7 13,2 16 9 23 12 NNE 1008,3 18 0,0
15.10.2018 13:00:00 19,9 13,4 10 5 15 8 NNE 1008,6 - 0,0
15.10.2018 12:00:00 19,7 13,2 6 4 11 6 NE 1008,4 - 0,0
15.10.2018 11:00:00 16,6 12,7 5 3 11 6 ESE 1008,6 18 0,0
15.10.2018 10:00:00 13,9 12,1 7 4 11 6 ESE 1008,8 - 0,0
15.10.2018 09:00:00 13,2 11,3 13 7 22 12 SW 1008,6 - 0,0
15.10.2018 08:00:00 13,4 11,8 7 4 16 9 SSW 1008,8 12 0,4
15.10.2018 07:00:00 13,7 11,7 6 3 17 9 SSW 1008,9 - 1,0
15.10.2018 06:00:00 13,8 11,1 8 4 26 14 WSW 1008,7 - 0,0
15.10.2018 05:00:00 13,6 11,3 18 10 27 15 SW 1008,8 - 0,0
15.10.2018 04:00:00 13,4 11,6 17 9 27 14 SW 1009,4 - 0,2
15.10.2018 03:00:00 13,4 12,0 14 8 29 16 SW 1009,9 - 2,0
15.10.2018 02:00:00 14,0 11,3 15 8 41 22 SW 1010,2 - 0,4
15.10.2018 01:00:00 14,3 10,1 18 10 28 15 SW 1010,2 - 0,0
15.10.2018 00:00:00 13,9 10,1 15 8 28 15 SSW 1010,6 - 0,0
14.10.2018 23:00:00 13,7 10,1 18 10 34 18 SW 1010,8 12 0,0
14.10.2018 22:00:00 13,0 11,1 16 9 31 17 SSW 1010,6 - 0,2
14.10.2018 21:00:00 13,1 11,8 19 11 33 18 SW 1010,6 - 0,4
14.10.2018 20:00:00 13,7 12,3 21 11 39 21 SW 1010,4 4,0 0,4
14.10.2018 19:00:00 14,3 12,3 27 15 61 33 WSW 1009,8 - 0,4
14.10.2018 18:00:00 15,3 12,2 45 24 61 33 W 1009,0 - 0,0
14.10.2018 17:00:00 14,8 11,8 37 20 56 30 W 1008,9 - 0,0
14.10.2018 16:00:00 14,5 12,4 32 18 56 30 WSW 1008,9 - 0,5
14.10.2018 15:00:00 14,5 13,4 23 13 46 25 WSW 1009,0 - 7,6
14.10.2018 14:00:00 14,6 13,5 26 14 55 30 WSW 1008,0 - 17,2
14.10.2018 13:00:00 15,4 13,6 43 23 74 40 WSW 1006,8 - 0,0
14.10.2018 12:00:00 16,4 13,9 49 26 71 39 W 1006,2 - 0,0
14.10.2018 11:00:00 17,8 15,6 49 27 60 33 W 1005,1 15 0,0
14.10.2018 10:00:00 24,1 13,9 17 9 42 23 S 1003,2 - 0,0
14.10.2018 09:00:00 24,1 13,9 23 12 45 25 SSE 1001,9 - 0,0
14.10.2018 08:00:00 23,6 13,5 16 8 56 30 SSE 1001,9 18 0,0
14.10.2018 07:00:00 24,3 13,8 26 14 69 37 SSE 1002,1 - 0,0
14.10.2018 06:00:00 24,2 13,7 28 15 53 29 SSE 1003,3 - 0,0
14.10.2018 05:00:00 24,2 13,4 14 8 44 24 SSE 1004,2 15 0,0
14.10.2018 04:00:00 24,9 13,4 29 16 52 28 SSE 1004,4 - 0,0
14.10.2018 03:00:00 24,9 13,1 19 10 44 24 SSE 1005,3 - 0,0
14.10.2018 02:00:00 23,3 14,6 7 4 24 13 E 1005,6 15 0,0
14.10.2018 01:00:00 22,7 14,5 7 4 26 14 SSE 1006,2 - 0,0
14.10.2018 00:00:00 22,4 14,0 10 6 27 15 E 1007,1 - 0,0
13.10.2018 23:00:00 23,3 14,6 14 7 24 13 E 1008,1 - 0,0
13.10.2018 22:00:00 23,5 14,8 6 3 34 19 N 1009,0 - 0,0
13.10.2018 21:00:00 25,4 14,2 10 6 31 17 SSE 1009,5 - 0,0
13.10.2018 20:00:00 26,4 14,2 16 9 29 16 SE 1009,9 18 0,0
13.10.2018 19:00:00 27,2 14,6 6 4 18 10 ESE 1010,2 - 0,0
13.10.2018 18:00:00 27,9 15,5 3 2 23 12 ESE 1010,7 - 0,0
13.10.2018 17:00:00 29,4 14,8 7 4 29 16 S 1011,2 - 0,0
13.10.2018 16:00:00 28,9 15,1 11 6 39 21 S 1011,7 - 0,0
13.10.2018 15:00:00 29,7 15,4 18 10 43 23 S 1012,6 - 0,0
13.10.2018 14:00:00 28,5 15,4 18 10 52 28 SSW 1013,6 20 0,0
13.10.2018 13:00:00 27,9 15,5 16 9 54 29 S 1014,4 - 0,0
13.10.2018 12:00:00 27,3 15,0 22 12 42 23 S 1015,2 - 0,0
13.10.2018 11:00:00 26,1 15,2 25 13 42 23 S 1015,3 20 0,0
13.10.2018 10:00:00 24,8 14,6 19 10 45 24 S 1015,4 - 0,0
13.10.2018 09:00:00 23,9 14,3 26 14 37 20 S 1015,5 - 0,0
13.10.2018 08:00:00 21,1 13,8 18 10 28 15 S 1015,5 18 0,0
13.10.2018 07:00:00 20,5 14,4 8 4 24 13 SE 1015,5 - 0,0
13.10.2018 06:00:00 20,5 14,6 5 3 22 12 SSE 1015,9 - 0,0
13.10.2018 05:00:00 22,6 14,4 7 4 43 23 S 1016,0 - 0,0
13.10.2018 04:00:00 23,6 14,6 8 5 32 17 SE 1016,5 - 0,0
13.10.2018 03:00:00 23,2 14,5 17 9 31 17 SE 1017,0 - 0,0
13.10.2018 02:00:00 22,7 13,7 13 7 28 15 S 1017,4 20 0,0
13.10.2018 01:00:00 20,4 14,5 16 9 25 13 S 1017,8 - 0,0
13.10.2018 00:00:00 19,2 14,7 4 2 23 12 SSW 1018,3 - 0,0
12.10.2018 23:00:00 19,4 15,3 6 4 19 11 S 1018,5 - 0,0
12.10.2018 22:00:00 20,2 15,8 9 5 11 6 S 1018,8 - 0,0
12.10.2018 21:00:00 20,9 16,7 9 5 12 6 S 1018,7 - 0,0
12.10.2018 20:00:00 22,4 17,1 10 6 18 10 S 1018,3 18 0,0
12.10.2018 19:00:00 23,7 16,2 7 4 19 11 SSE 1017,9 - 0,0

tt = temperature
td = dewpoint
ff = wind speed
fx = gusts
dd = wind direction
ppp = reduced air pressure
vv = visibility
rr = precipitation

Next stations